Regional Weather Roundup
Issued by NWS

Home | Current Version | Previous Version | Text Only | Print | Product List | Glossary On
Versions: 1 2 3 4 5 6 7 8 9 10 11 12 13 14 15 16 17 18 19 20 21 22 23 24 25 26 27 28 29 30 31 32 33 34 35 36 37 38 39 40 41 42 43 44 45 46 47 48 49 50
000
ASCA42 TJSJ 200010
RWRPR
PUERTO RICO/U.S. VIRGIN ISLANDS HOURLY WEATHER ROUNDUP
NATIONAL WEATHER SERVICE SAN JUAN PR
800 PM AST SUN NOV 19 2017

PRZ001>002-007>008-010-200100-
PUERTO RICO

CITY           SKY/WX    TMP DP  RH WIND       PRES   REMARKS
SAN JUAN LMM   PTCLDY    77  77 100 CALM      29.84R
AGUADILLA      MOCLDY    77  75  94 NW6       29.85F
$$

VIZ001>002-200100-
U.S. VIRGIN ISLANDS

CITY           SKY/WX    TMP DP  RH WIND       PRES   REMARKS
CHARLOTTE AMA    N/A    N/A N/A N/A MISG      29.89R
$$

HOURLY WEATHER ROUNDUP FOR THE NEWS MEDIA

CITY           SKY/WX    TMP DP  RH WIND       PRES   REMARKS
ORLANDO        MOCLDY    71  66  84 NW8       29.94R
NEW YORK       MOCLDY    46  25  43 NW12      29.70R
NEWARK         MOCLDY    47  25  42 W9G17     29.70R
CHICAGO        CLEAR     32  18  56 W7        30.06R WCI  26
HARTFORD         N/A     40  27  59 W18G30    29.56R WCI  31
BOSTON         PTCLDY    41  26  55 W23G31    29.53R
DALLAS         PTCLDY    58  27  30 CALM      30.23F
PHILADELPHIA   MOCLDY    47  25  42 W13       29.79R
LOS ANGELES    PTCLDY    68  44  42 W12       29.97S
WASHINGTON DC  MOCLDY    42  28  57 W8        29.88R


USA.gov is the U.S. government's official web portal to all federal, state and local government web resources and services.